SCP
-0 -0 -0 0 -0 0 0 0 -0 -0 -0 0 -0 -0 0 0 0 0 0 0 0 0 0 0 0 0 0 0 0 0 -0 0 0 0 -0 0 -0 -0 -0 -0 -0 0 -0
-0 -0 -0 0 0 0 -0 0 0 0 0 0 0 0 0 0 0 0 0 0 0 0 0 0 0 0 0 0 -0 -0 -0 -0 0 0 0 0 0 -0 -0 0 0 -0 -0
-0 -0 -0 -0 0 0 0 0 -0 -0 -0 -0 0 -0 0 0 0 0 -0 0 0 -0 -0 0 0 0 0 0 0 0 -0 0 0 0 0 -0 -0 0 0 0 -0 -0 -0
-0 -0 -0 0 0 0 0 0 0 0 0 -0 0 0 0 0 0 0 0 0 0 0 0 0 0 0 0 0 0 0 0 0 -0 0 0 -0 -0 0 0 0 -0 -0 -0
-0 -0 0 -0 -0 0 0 -0 -0 -0 0 -0 -0 0 0 0 0 0 0 0 0 0 0 0 0 0 0 0 0 0 0 0 -0 -0 -0 -0 -0 0 -0 -0 0 0 0
-0 -0 0 -0 0 -0 0 -0 0 0 0 0 0 0 -0 0 0 0 0 0 0 0 0 -0 0 0 0 0 0 0 0 0 -0 -0 -0 0 0 0 0 0 0 0 0
-0 -0 -0 -0 -0 -0 -0 -0 -0 -0 0 -0 -0 0 0 0 0 0 0 0 0 0 0 0 0 0 0 0 0 0 0 0 0 0 0 0 0 0 0 0 0 0 0
-0 -0 -0 -0 -0 -0 -0 -0 0 0 -0 0 0 -0 -0 0 0 0 0 0 0 0 0 0 0 0 0 0 0 0 0 0 0 0 0 0 0 0 0 0 0 0 0
-0 0 0 -0 0 -0 0 0 0 0 0 0 0 0 0 0 0 0 0 0 0 0 0 0 0 0 0 0 1 0 0 0 0 0 0 0 0 0 0 0 0 0 0
-0 -0 0 0 0 -0 -0 0 0 0 0 0 0 0 0 0 0 0 0 0 0 0 0 0 0 0 0 0 1 0 0 0 0 0 0 0 0 0 0 0 0 0 0
-0 -0 -0 -0 -0 -0 -0 -0 0 0 0 0 0 0 0 0 0 0 0 0 0 0 0 0 1 1 0 0 1 1 1 0 0 0 0 0 0 0 0 0 0 0 0
-0 -0 -0 -0 -0 -0 -0 -0 -0 -0 -0 0 0 0 0 0 0 0 0 0 0 1 1 1 1 1 1 1 1 1 0 0 0 0 0 1 0 0 0 0 1 1 1
-0 -0 -0 -0 -0 -0 -0 -0 -0 -0 0 0 0 0 0 0 0 0 0 0 0 1 0 0 0 1 1 1 1 0 0 0 0 0 0 1 1 1 1 1 1 1 1
-0 -0 -0 -0 -0 -0 -0 -0 -0 -0 0 0 0 0 0 0 0 0 0 0 0 0 0 0 0 1 1 1 1 0 0 0 0 0 0 1 1 1 1 1 1 1 1
-0 -0 -0 -0 -0 -0 -0 -0 -0 -0 0 0 0 0 0 0 0 0 0 0 0 0 0 0 0 0 1 0 0 0 0 0 0 0 0 1 1 1 1 1 1 1 1
-0 -0 -0 -0 -0 -0 -0 -0 -0 0 0 0 0 0 0 0 0 0 0 0 0 0 0 0 0 0 0 0 0 0 0 0 0 0 0 0 1 1 1 1 1 1 0
-0 -0 -0 -0 -0 -0 -0 -0 -0 0 0 0 0 0 0 0 0 0 0 0 0 0 0 0 0 0 0 0 0 0 0 0 0 0 0 0 0 0 0 0 0 0 0
-0 -0 -0 -0 -0 0 -0 -0 -0 0 0 0 0 0 0 0 0 0 0 0 0 0 0 0 0 0 0 0 0 0 0 0 0 0 0 0 0 0 0 -0 -0 -0 0
-0 0 -0 -0 0 -0 -0 -0 -0 -0 0 0 0 0 0 0 0 0 0 0 0 0 0 0 0 0 0 0 0 0 0 0 0 0 0 0 0 0 0 0 0 0 0
-0 0 0 0 0 -0 -0 -0 -0 0 0 0 0 0 0 0 0 0 0 0 0 0 0 0 0 0 0 0 0 0 0 0 0 0 0 0 0 0 0 0 0 0 0
-0 0 0 0 0 0 0 -0 -0 0 0 0 0 0 0 0 0 0 0 0 0 0 0 0 0 0 0 0 0 0 0 0 0 0 0 0 0 0 0 0 0 0 0
0 -0 -0 0 0 0 0 0 0 0 0 0 0 0 0 0 0 0 0 0 0 0 0 0 0 0 0 0 0 0 -0 0 0 -0 0 0 0 0 0 0 0 0 0
0 -0 0 0 0 0 0 0 0 0 0 0 0 0 0 0 0 0 0 0 0 0 0 0 0 0 0 0 0 0 -0 0 0 0 -0 -0 0 0 0 0 0 0 0
-0 0 0 0 0 0 0 0 0 -0 -0 -0 0 0 0 0 0 0 0 0 0 0 0 0 0 0 0 0 0 0 -0 -0 0 -0 0 0 0 0 0 0 0 -0 0
-0 -0 0 0 0 0 0 0 0 0 0 0 0 -0 -0 0 0 0 0 0 0 0 0 0 0 0 0 0 0 0 0 0 0 0 0 0 0 0 0 -0 -0 -0 -0
0 0 0 0 0 0 0 0 0 0 0 0 -0 -0 -0 -0 0 0 0 0 0 0 0 0 0 0 0 0 0 0 0 0 0 0 0 0 0 0 -0 -0 0 0 0
Wind_Speed_500mb
30 32 29 32 31 30 29 31 33 33 33 36 38 40 39 37 36 34 35 35 34 33 31 31 29 29 27 27 26 26 26 26 27 29 33 32 29 30 24 25 27 27 21
40 37 33 31 31 31 30 32 33 34 33 35 37 39 38 38 34 35 33 33 33 30 32 33 32 32 31 31 27 25 26 29 30 31 31 28 27 23 22 24 24 22 23
43 39 36 32 32 32 32 34 34 32 36 34 34 36 37 34 34 32 31 30 31 32 35 36 33 33 34 33 29 30 32 29 29 31 26 27 21 21 21 23 21 21 22
43 40 35 33 33 33 32 35 33 35 36 35 33 36 33 29 31 30 30 29 29 33 37 33 34 35 30 31 30 31 31 31 27 26 27 24 20 20 22 20 19 20 19
43 40 36 33 32 34 33 34 33 37 35 34 35 33 30 28 27 27 27 28 28 34 36 31 37 35 37 33 28 27 28 28 26 26 26 25 24 23 21 18 18 17 17
44 39 35 32 29 30 33 32 31 34 38 35 32 33 30 27 24 24 25 27 26 27 30 33 31 30 31 30 31 28 24 22 22 25 26 23 21 18 17 18 13 15 12
45 39 33 32 30 30 30 31 31 34 36 32 30 26 23 26 27 28 25 26 24 27 32 31 30 30 32 32 34 30 23 19 16 18 20 21 22 17 16 14 12 7 8
38 37 33 30 30 30 31 31 32 32 31 30 27 28 28 28 28 30 29 28 28 29 30 30 29 30 31 34 35 34 24 16 14 14 16 15 15 11 9 9 9 10 11
34 31 29 29 28 29 30 29 31 32 31 30 32 32 32 32 32 31 31 31 32 33 32 29 27 25 22 21 25 26 23 20 14 11 13 11 12 12 13 14 14 16 16
32 28 28 29 28 30 29 28 31 30 31 33 35 36 36 38 38 36 34 34 36 40 36 30 21 17 16 16 14 16 22 20 16 13 13 14 16 16 17 18 19 20 20
33 30 29 29 31 31 31 30 30 32 34 36 36 35 35 40 44 45 40 38 37 38 34 28 23 17 12 10 11 14 23 19 16 14 13 15 17 20 21 21 21 21 20
36 34 31 31 32 32 34 31 30 36 35 36 35 37 39 43 40 37 35 32 32 29 24 20 16 11 5 6 11 13 22 18 16 16 16 20 22 22 21 22 22 23 23
42 34 31 35 32 33 35 33 32 36 38 36 37 40 40 33 27 23 24 22 21 19 17 15 11 9 7 1 9 15 20 19 19 20 22 23 21 21 25 26 27 26 25
37 36 35 35 35 35 36 36 40 38 35 38 41 39 32 24 25 23 26 22 23 20 25 25 29 22 10 11 18 25 24 24 25 27 26 24 24 26 27 27 27 25 26
40 38 37 35 37 35 38 37 31 31 32 36 36 34 26 18 21 22 14 25 22 21 17 19 21 21 17 21 22 19 26 28 30 30 29 27 25 26 26 25 24 25 25
40 40 39 37 35 27 29 32 32 32 32 36 35 26 17 16 15 20 28 23 20 16 13 16 18 13 16 15 20 22 23 28 32 31 29 27 27 28 29 29 28 28 28
41 39 39 37 32 32 30 31 30 33 28 29 26 21 16 13 15 11 16 17 8 10 10 7 9 12 7 10 10 12 19 24 22 23 27 29 32 32 32 33 33 30 28
43 41 38 37 33 28 28 31 30 30 28 23 19 19 18 17 11 15 18 19 15 11 9 8 8 11 16 15 11 12 11 16 22 23 24 23 24 22 20 18 16 16 18
43 44 41 39 35 29 26 31 29 28 23 22 19 23 19 15 23 17 17 17 16 15 15 14 12 15 13 16 13 9 11 17 14 13 10 7 4 3 12 14 18 16 13
43 40 46 41 36 32 30 32 32 28 27 24 18 23 19 12 14 20 14 15 13 9 12 10 10 9 7 7 6 3 3 5 8 10 11 8 9 8 8 12 15 13 17
45 44 49 50 44 38 36 32 30 28 30 23 22 17 13 15 16 16 14 12 11 8 7 8 6 12 6 4 5 7 3 9 8 10 18 17 13 13 10 12 14 17 13
53 48 47 55 46 40 41 35 29 30 26 19 17 17 18 18 14 24 18 15 11 9 7 7 14 12 4 7 6 10 7 3 7 10 18 25 20 16 15 16 19 17 15
57 56 51 53 51 46 41 34 36 35 31 26 22 17 13 19 15 21 20 15 10 7 8 10 12 4 3 2 6 10 7 7 9 4 6 10 14 14 14 18 22 20 22
54 54 55 48 50 52 39 39 35 38 41 33 29 18 16 19 18 18 15 18 9 12 11 8 7 6 3 5 3 9 11 11 8 11 10 6 13 11 7 10 16 19 20
52 52 59 52 47 56 46 47 40 35 31 32 31 22 20 20 24 18 20 15 12 10 12 11 5 5 3 5 4 4 7 5 1 5 15 17 16 11 19 25 23 24 12
53 53 53 55 47 44 44 52 50 44 37 33 32 26 24 20 30 21 17 16 14 13 15 15 9 5 0 2 6 7 1 4 1 2 9 17 24 16 23 34 18 19 21
Wind_Direction_500mb
152 141 141 135 128 127 125 124 124 130 128 119 125 122 119 117 115 114 113 117 115 115 119 119 113 111 111 112 107 107 111 110 114 117 117 113 109 108 112 108 104 99 103
143 138 138 131 125 128 128 126 125 128 130 127 126 120 121 121 115 115 111 112 115 117 114 110 107 105 105 105 103 109 112 118 120 122 119 113 108 108 104 103 96 101 98
143 137 133 131 131 131 129 125 126 127 127 126 125 121 116 112 112 110 111 111 111 114 113 111 113 111 111 100 99 99 112 120 123 122 122 116 115 106 105 105 104 96 95
143 137 134 132 134 131 129 131 130 127 126 125 125 125 117 116 110 111 112 113 112 116 117 115 112 111 109 103 97 101 105 115 123 129 123 119 111 106 106 105 101 95 91
143 138 135 133 131 133 130 130 128 131 129 128 125 122 118 116 112 109 116 112 113 123 121 107 103 103 108 98 93 88 93 104 112 118 115 110 106 100 99 97 93 88 82
142 140 138 133 128 130 131 132 132 135 137 133 129 124 118 115 113 114 106 108 117 123 121 111 105 105 101 89 85 82 91 92 102 110 109 110 109 108 101 91 86 89 85
145 143 141 138 133 135 135 132 130 127 129 121 123 119 114 108 106 101 102 111 118 120 120 112 101 96 93 82 72 72 82 98 100 112 116 112 107 105 103 108 106 84 73
147 145 148 147 142 140 141 137 136 132 128 126 122 117 112 112 109 108 108 115 122 121 121 113 103 90 81 72 65 63 68 84 94 109 114 116 118 114 98 83 72 66 66
152 152 154 152 149 143 141 140 137 135 130 121 116 113 109 109 107 107 110 112 115 125 125 117 103 91 78 70 64 58 60 68 68 85 89 99 103 91 81 72 69 68 67
156 156 156 156 154 147 141 138 138 137 133 121 114 109 107 110 109 108 106 103 109 123 127 127 118 101 81 69 65 50 47 60 66 70 76 88 87 88 86 81 77 74 71
155 154 152 153 153 151 148 141 141 143 138 128 122 113 113 113 105 101 98 99 112 123 125 126 123 118 92 36 31 43 45 52 62 68 78 84 87 85 82 81 78 72 65
156 148 147 149 152 154 154 146 146 147 140 134 125 123 123 115 110 109 108 108 112 119 123 121 124 115 95 359 343 23 36 53 64 73 81 83 81 82 81 76 71 66 62
140 142 146 151 151 153 153 149 148 143 135 133 134 129 127 121 114 108 105 97 106 119 128 125 125 143 153 141 26 44 55 68 78 84 83 81 81 82 79 73 68 63 58
145 140 141 148 147 149 153 148 142 141 141 137 138 136 132 120 112 112 97 104 104 98 102 97 87 85 149 77 75 60 73 83 87 85 83 83 82 80 77 72 68 62 55
145 145 140 137 141 146 151 152 154 155 147 145 145 145 148 127 124 121 110 122 115 107 95 101 100 86 88 81 75 68 74 84 85 85 84 84 84 81 78 73 66 59 53
155 154 150 144 141 147 163 160 154 150 150 146 147 148 146 140 128 101 118 120 119 110 87 94 80 100 86 75 81 79 69 71 73 74 80 82 82 82 81 76 71 63 56
166 159 158 149 152 153 149 166 160 161 158 150 158 157 150 153 138 130 145 128 124 142 109 99 67 98 86 92 104 97 83 75 63 65 74 89 91 87 76 70 63 56 49
171 169 161 161 166 178 188 170 166 157 163 174 176 158 159 146 154 142 134 112 100 121 117 99 83 119 128 143 113 103 119 90 81 79 86 93 87 74 81 76 70 53 35
175 173 168 168 165 169 173 180 177 167 174 176 171 161 151 135 140 145 139 120 102 90 99 103 90 106 130 133 117 101 77 99 89 75 65 44 28 20 1 16 21 18 15
171 173 178 172 173 174 175 170 167 174 186 187 181 163 169 158 176 169 152 117 120 101 104 84 80 111 102 32 5 322 326 287 299 311 317 322 329 336 13 31 25 3 0
169 173 178 183 182 182 174 172 179 182 192 195 194 179 184 182 175 178 170 145 147 176 113 51 61 134 119 67 91 86 314 297 269 277 279 297 323 313 302 339 341 4 353
172 170 172 185 191 188 188 188 183 179 172 167 167 185 190 194 191 183 181 180 164 187 178 99 107 141 141 115 146 177 157 191 251 263 264 273 289 300 291 315 333 347 357
180 179 181 179 186 187 191 189 188 178 181 180 169 172 188 201 195 180 178 182 196 182 167 106 117 170 186 172 228 192 185 213 197 165 247 248 286 328 339 313 326 340 347
191 187 183 184 192 190 195 197 193 193 198 190 195 186 190 195 203 192 190 204 210 189 173 170 108 88 69 212 10 200 209 188 200 206 221 251 271 284 280 322 350 338 349
195 192 190 189 188 200 209 205 205 204 209 205 199 200 197 195 197 212 208 213 218 195 182 192 172 98 64 86 111 97 221 241 267 232 245 265 295 301 348 332 299 343 32
198 197 197 197 197 203 210 207 211 212 206 198 203 206 195 195 199 204 217 229 230 229 213 211 229 194 23 34 49 42 274 254 270 325 296 304 272 312 15 28 43 27 18
Wind_Speed_850mb
30 32 29 32 31 30 29 31 33 33 33 36 38 40 39 37 36 34 35 35 34 33 31 31 29 29 27 27 26 26 26 26 27 29 33 32 29 30 24 25 27 27 21
40 37 33 31 31 31 30 32 33 34 33 35 37 39 38 38 34 35 33 33 33 30 32 33 32 32 31 31 27 25 26 29 30 31 31 28 27 23 22 24 24 22 23
43 39 36 32 32 32 32 34 34 32 36 34 34 36 37 34 34 32 31 30 31 32 35 36 33 33 34 33 29 30 32 29 29 31 26 27 21 21 21 23 21 21 22
43 40 35 33 33 33 32 35 33 35 36 35 33 36 33 29 31 30 30 29 29 33 37 33 34 35 30 31 30 31 31 31 27 26 27 24 20 20 22 20 19 20 19
43 40 36 33 32 34 33 34 33 37 35 34 35 33 30 28 27 27 27 28 28 34 36 31 37 35 37 33 28 27 28 28 26 26 26 25 24 23 21 18 18 17 17
44 39 35 32 29 30 33 32 31 34 38 35 32 33 30 27 24 24 25 27 26 27 30 33 31 30 31 30 31 28 24 22 22 25 26 23 21 18 17 18 13 15 12
45 39 33 32 30 30 30 31 31 34 36 32 30 26 23 26 27 28 25 26 24 27 32 31 30 30 32 32 34 30 23 19 16 18 20 21 22 17 16 14 12 7 8
38 37 33 30 30 30 31 31 32 32 31 30 27 28 28 28 28 30 29 28 28 29 30 30 29 30 31 34 35 34 24 16 14 14 16 15 15 11 9 9 9 10 11
34 31 29 29 28 29 30 29 31 32 31 30 32 32 32 32 32 31 31 31 32 33 32 29 27 25 22 21 25 26 23 20 14 11 13 11 12 12 13 14 14 16 16
32 28 28 29 28 30 29 28 31 30 31 33 35 36 36 38 38 36 34 34 36 40 36 30 21 17 16 16 14 16 22 20 16 13 13 14 16 16 17 18 19 20 20
33 30 29 29 31 31 31 30 30 32 34 36 36 35 35 40 44 45 40 38 37 38 34 28 23 17 12 10 11 14 23 19 16 14 13 15 17 20 21 21 21 21 20
36 34 31 31 32 32 34 31 30 36 35 36 35 37 39 43 40 37 35 32 32 29 24 20 16 11 5 6 11 13 22 18 16 16 16 20 22 22 21 22 22 23 23
42 34 31 35 32 33 35 33 32 36 38 36 37 40 40 33 27 23 24 22 21 19 17 15 11 9 7 1 9 15 20 19 19 20 22 23 21 21 25 26 27 26 25
37 36 35 35 35 35 36 36 40 38 35 38 41 39 32 24 25 23 26 22 23 20 25 25 29 22 10 11 18 25 24 24 25 27 26 24 24 26 27 27 27 25 26
40 38 37 35 37 35 38 37 31 31 32 36 36 34 26 18 21 22 14 25 22 21 17 19 21 21 17 21 22 19 26 28 30 30 29 27 25 26 26 25 24 25 25
40 40 39 37 35 27 29 32 32 32 32 36 35 26 17 16 15 20 28 23 20 16 13 16 18 13 16 15 20 22 23 28 32 31 29 27 27 28 29 29 28 28 28
41 39 39 37 32 32 30 31 30 33 28 29 26 21 16 13 15 11 16 17 8 10 10 7 9 12 7 10 10 12 19 24 22 23 27 29 32 32 32 33 33 30 28
43 41 38 37 33 28 28 31 30 30 28 23 19 19 18 17 11 15 18 19 15 11 9 8 8 11 16 15 11 12 11 16 22 23 24 23 24 22 20 18 16 16 18
43 44 41 39 35 29 26 31 29 28 23 22 19 23 19 15 23 17 17 17 16 15 15 14 12 15 13 16 13 9 11 17 14 13 10 7 4 3 12 14 18 16 13
43 40 46 41 36 32 30 32 32 28 27 24 18 23 19 12 14 20 14 15 13 9 12 10 10 9 7 7 6 3 3 5 8 10 11 8 9 8 8 12 15 13 17
45 44 49 50 44 38 36 32 30 28 30 23 22 17 13 15 16 16 14 12 11 8 7 8 6 12 6 4 5 7 3 9 8 10 18 17 13 13 10 12 14 17 13
53 48 47 55 46 40 41 35 29 30 26 19 17 17 18 18 14 24 18 15 11 9 7 7 14 12 4 7 6 10 7 3 7 10 18 25 20 16 15 16 19 17 15
57 56 51 53 51 46 41 34 36 35 31 26 22 17 13 19 15 21 20 15 10 7 8 10 12 4 3 2 6 10 7 7 9 4 6 10 14 14 14 18 22 20 22
54 54 55 48 50 52 39 39 35 38 41 33 29 18 16 19 18 18 15 18 9 12 11 8 7 6 3 5 3 9 11 11 8 11 10 6 13 11 7 10 16 19 20
52 52 59 52 47 56 46 47 40 35 31 32 31 22 20 20 24 18 20 15 12 10 12 11 5 5 3 5 4 4 7 5 1 5 15 17 16 11 19 25 23 24 12
53 53 53 55 47 44 44 52 50 44 37 33 32 26 24 20 30 21 17 16 14 13 15 15 9 5 0 2 6 7 1 4 1 2 9 17 24 16 23 34 18 19 21
Wind_Direction_850mb
152 141 141 135 128 127 125 124 124 130 128 119 125 122 119 117 115 114 113 117 115 115 119 119 113 111 111 112 107 107 111 110 114 117 117 113 109 108 112 108 104 99 103
143 138 138 131 125 128 128 126 125 128 130 127 126 120 121 121 115 115 111 112 115 117 114 110 107 105 105 105 103 109 112 118 120 122 119 113 108 108 104 103 96 101 98
143 137 133 131 131 131 129 125 126 127 127 126 125 121 116 112 112 110 111 111 111 114 113 111 113 111 111 100 99 99 112 120 123 122 122 116 115 106 105 105 104 96 95
143 137 134 132 134 131 129 131 130 127 126 125 125 125 117 116 110 111 112 113 112 116 117 115 112 111 109 103 97 101 105 115 123 129 123 119 111 106 106 105 101 95 91
143 138 135 133 131 133 130 130 128 131 129 128 125 122 118 116 112 109 116 112 113 123 121 107 103 103 108 98 93 88 93 104 112 118 115 110 106 100 99 97 93 88 82
142 140 138 133 128 130 131 132 132 135 137 133 129 124 118 115 113 114 106 108 117 123 121 111 105 105 101 89 85 82 91 92 102 110 109 110 109 108 101 91 86 89 85
145 143 141 138 133 135 135 132 130 127 129 121 123 119 114 108 106 101 102 111 118 120 120 112 101 96 93 82 72 72 82 98 100 112 116 112 107 105 103 108 106 84 73
147 145 148 147 142 140 141 137 136 132 128 126 122 117 112 112 109 108 108 115 122 121 121 113 103 90 81 72 65 63 68 84 94 109 114 116 118 114 98 83 72 66 66
152 152 154 152 149 143 141 140 137 135 130 121 116 113 109 109 107 107 110 112 115 125 125 117 103 91 78 70 64 58 60 68 68 85 89 99 103 91 81 72 69 68 67
156 156 156 156 154 147 141 138 138 137 133 121 114 109 107 110 109 108 106 103 109 123 127 127 118 101 81 69 65 50 47 60 66 70 76 88 87 88 86 81 77 74 71
155 154 152 153 153 151 148 141 141 143 138 128 122 113 113 113 105 101 98 99 112 123 125 126 123 118 92 36 31 43 45 52 62 68 78 84 87 85 82 81 78 72 65
156 148 147 149 152 154 154 146 146 147 140 134 125 123 123 115 110 109 108 108 112 119 123 121 124 115 95 359 343 23 36 53 64 73 81 83 81 82 81 76 71 66 62
140 142 146 151 151 153 153 149 148 143 135 133 134 129 127 121 114 108 105 97 106 119 128 125 125 143 153 141 26 44 55 68 78 84 83 81 81 82 79 73 68 63 58
145 140 141 148 147 149 153 148 142 141 141 137 138 136 132 120 112 112 97 104 104 98 102 97 87 85 149 77 75 60 73 83 87 85 83 83 82 80 77 72 68 62 55
145 145 140 137 141 146 151 152 154 155 147 145 145 145 148 127 124 121 110 122 115 107 95 101 100 86 88 81 75 68 74 84 85 85 84 84 84 81 78 73 66 59 53
155 154 150 144 141 147 163 160 154 150 150 146 147 148 146 140 128 101 118 120 119 110 87 94 80 100 86 75 81 79 69 71 73 74 80 82 82 82 81 76 71 63 56
166 159 158 149 152 153 149 166 160 161 158 150 158 157 150 153 138 130 145 128 124 142 109 99 67 98 86 92 104 97 83 75 63 65 74 89 91 87 76 70 63 56 49
171 169 161 161 166 178 188 170 166 157 163 174 176 158 159 146 154 142 134 112 100 121 117 99 83 119 128 143 113 103 119 90 81 79 86 93 87 74 81 76 70 53 35
175 173 168 168 165 169 173 180 177 167 174 176 171 161 151 135 140 145 139 120 102 90 99 103 90 106 130 133 117 101 77 99 89 75 65 44 28 20 1 16 21 18 15
171 173 178 172 173 174 175 170 167 174 186 187 181 163 169 158 176 169 152 117 120 101 104 84 80 111 102 32 5 322 326 287 299 311 317 322 329 336 13 31 25 3 0
169 173 178 183 182 182 174 172 179 182 192 195 194 179 184 182 175 178 170 145 147 176 113 51 61 134 119 67 91 86 314 297 269 277 279 297 323 313 302 339 341 4 353
172 170 172 185 191 188 188 188 183 179 172 167 167 185 190 194 191 183 181 180 164 187 178 99 107 141 141 115 146 177 157 191 251 263 264 273 289 300 291 315 333 347 357
180 179 181 179 186 187 191 189 188 178 181 180 169 172 188 201 195 180 178 182 196 182 167 106 117 170 186 172 228 192 185 213 197 165 247 248 286 328 339 313 326 340 347
191 187 183 184 192 190 195 197 193 193 198 190 195 186 190 195 203 192 190 204 210 189 173 170 108 88 69 212 10 200 209 188 200 206 221 251 271 284 280 322 350 338 349
195 192 190 189 188 200 209 205 205 204 209 205 199 200 197 195 197 212 208 213 218 195 182 192 172 98 64 86 111 97 221 241 267 232 245 265 295 301 348 332 299 343 32
198 197 197 197 197 203 210 207 211 212 206 198 203 206 195 195 199 204 217 229 230 229 213 211 229 194 23 34 49 42 274 254 270 325 296 304 272 312 15 28 43 27 18